NKS778 KDTW-KDFW

Flight info

Callsign NKS778
Flight time 2h 25m
Altitude 36000
Route SNDRS3 BGHRT STL RZC FSM RRNET SEEVR4
Aircraft A320/M-SDE3FGHIRWY/LB1

Departure

Time 2026-05-04 19:27
Airport Detroit Metropolitan Wayne County Airport (KDTW)

Arrival

Time 2026-05-04 21:53
Airport Dallas Fort Worth International Airport (KDFW)
Time Latitude Longitude Altitude Speed Heading
2026-05-04 19:07 42.22211 -83.35093 646 ft 0 kts 349°
2026-05-04 19:20 42.22195 -83.35089 647 ft 3 kts 349°
2026-05-04 19:20 42.22175 -83.35084 649 ft 3 kts 349°
2026-05-04 19:21 42.22154 -83.35079 648 ft 3 kts 349°
2026-05-04 19:21 42.22134 -83.35074 648 ft 3 kts 349°
2026-05-04 19:21 42.22114 -83.35071 648 ft 3 kts 13°
2026-05-04 19:21 42.22097 -83.35082 651 ft 2 kts 53°
2026-05-04 19:22 42.22093 -83.35091 646 ft 1 kts 85°
2026-05-04 19:22 42.22081 -83.35010 648 ft 17 kts 120°
2026-05-04 19:22 42.22021 -83.34883 647 ft 15 kts 105°
2026-05-04 19:22 42.22023 -83.34753 646 ft 14 kts 87°
2026-05-04 19:23 42.21988 -83.34708 646 ft 12 kts 187°
2026-05-04 19:23 42.21869 -83.34700 646 ft 13 kts 175°
2026-05-04 19:23 42.21840 -83.34603 647 ft 13 kts 89°
2026-05-04 19:23 42.21874 -83.34487 648 ft 15 kts 29°
2026-05-04 19:24 42.21983 -83.34406 646 ft 20 kts 28°
2026-05-04 19:24 42.22119 -83.34307 647 ft 24 kts 28°
2026-05-04 19:24 42.22267 -83.34197 646 ft 18 kts 28°
2026-05-04 19:24 42.22322 -83.34158 646 ft 15 kts 28°
2026-05-04 19:25 42.22448 -83.34066 648 ft 22 kts 28°
2026-05-04 19:25 42.22584 -83.33966 647 ft 23 kts 28°
2026-05-04 19:25 42.22718 -83.33868 646 ft 21 kts 28°
2026-05-04 19:25 42.22734 -83.33747 647 ft 15 kts 119°
2026-05-04 19:26 42.22678 -83.33726 647 ft 9 kts 207°
2026-05-04 19:26 42.22622 -83.33768 647 ft 22 kts 209°
2026-05-04 19:26 42.22361 -83.33960 648 ft 76 kts 208°
2026-05-04 19:26 42.21678 -83.34462 657 ft 143 kts 210°
2026-05-04 19:27 42.20716 -83.35158 943 ft 173 kts 208°
2026-05-04 19:27 42.19597 -83.35936 1546 ft 185 kts 208°
2026-05-04 19:27 42.18361 -83.36637 2062 ft 204 kts 199°
2026-05-04 19:27 42.16915 -83.37216 2456 ft 228 kts 198°
2026-05-04 19:28 42.15332 -83.37821 3062 ft 242 kts 198°
2026-05-04 19:28 42.13703 -83.38432 3961 ft 243 kts 198°
2026-05-04 19:28 42.12079 -83.39036 4846 ft 246 kts 199°
2026-05-04 19:28 42.10399 -83.39663 5726 ft 250 kts 200°
2026-05-04 19:29 42.08729 -83.40288 6515 ft 255 kts 201°
2026-05-04 19:29 42.07080 -83.41168 6894 ft 254 kts 214°
2026-05-04 19:29 42.05642 -83.42524 6991 ft 252 kts 220°
2026-05-04 19:29 42.04234 -83.43924 7008 ft 251 kts 220°
2026-05-04 19:30 42.02827 -83.45309 7011 ft 251 kts 219°
2026-05-04 19:30 42.01419 -83.46689 7003 ft 250 kts 219°
2026-05-04 19:30 42.00012 -83.48066 7004 ft 250 kts 219°
2026-05-04 19:30 41.98604 -83.49445 7014 ft 250 kts 220°
2026-05-04 19:31 41.97198 -83.50875 7604 ft 254 kts 221°
2026-05-04 19:31 41.95799 -83.52325 8483 ft 255 kts 221°
2026-05-04 19:31 41.94389 -83.53792 9292 ft 258 kts 221°
2026-05-04 19:31 41.92957 -83.55280 10029 ft 262 kts 222°
2026-05-04 19:32 41.91484 -83.56811 10457 ft 278 kts 221°
2026-05-04 19:32 41.89893 -83.58466 10631 ft 300 kts 221°
2026-05-04 19:32 41.88210 -83.60205 11112 ft 309 kts 221°
2026-05-04 19:32 41.86489 -83.61971 11769 ft 313 kts 221°
2026-05-04 19:33 41.84746 -83.63758 12452 ft 316 kts 221°
2026-05-04 19:33 41.82988 -83.65563 13129 ft 320 kts 221°
2026-05-04 19:33 41.81214 -83.67389 13753 ft 323 kts 222°
2026-05-04 19:33 41.79422 -83.69232 14320 ft 327 kts 222°
2026-05-04 19:34 41.77606 -83.71092 14892 ft 330 kts 221°
2026-05-04 19:34 41.75793 -83.72948 15444 ft 334 kts 221°
2026-05-04 19:34 41.73937 -83.74845 16001 ft 337 kts 221°
2026-05-04 19:34 41.72039 -83.76789 16551 ft 341 kts 221°
2026-05-04 19:35 41.70167 -83.78702 17108 ft 345 kts 220°
2026-05-04 19:35 41.68118 -83.80436 17681 ft 352 kts 216°
2026-05-04 19:35 41.66012 -83.82131 18219 ft 355 kts 216°
2026-05-04 19:35 41.63879 -83.83841 18736 ft 359 kts 216°
2026-05-04 19:36 41.61734 -83.85559 19266 ft 362 kts 216°
2026-05-04 19:36 41.59558 -83.87303 19773 ft 365 kts 215°
2026-05-04 19:36 41.57368 -83.89056 20290 ft 369 kts 215°
2026-05-04 19:36 41.55159 -83.90823 20790 ft 372 kts 215°
2026-05-04 19:37 41.52928 -83.92604 21288 ft 375 kts 215°
2026-05-04 19:37 41.50683 -83.94399 21784 ft 378 kts 215°
2026-05-04 19:37 41.48416 -83.96212 22272 ft 381 kts 215°
2026-05-04 19:37 41.46130 -83.98039 22752 ft 384 kts 215°
2026-05-04 19:38 41.43826 -83.99876 23235 ft 388 kts 215°
2026-05-04 19:38 41.41502 -84.01729 23636 ft 391 kts 215°
2026-05-04 19:38 41.39165 -84.03594 24013 ft 394 kts 214°
2026-05-04 19:38 41.36803 -84.05477 24402 ft 397 kts 214°
2026-05-04 19:39 41.34427 -84.07369 24787 ft 399 kts 215°
2026-05-04 19:39 41.32037 -84.09267 25177 ft 402 kts 214°
2026-05-04 19:39 41.29628 -84.11181 25557 ft 404 kts 215°
2026-05-04 19:39 41.27353 -84.13348 25912 ft 402 kts 225°
2026-05-04 19:40 41.25414 -84.16002 26271 ft 400 kts 234°
2026-05-04 19:40 41.23861 -84.19066 26619 ft 399 kts 244°
2026-05-04 19:40 41.22725 -84.22424 26971 ft 399 kts 251°
2026-05-04 19:40 41.21709 -84.25864 27320 ft 402 kts 251°
2026-05-04 19:41 41.20682 -84.29328 27659 ft 404 kts 250°
2026-05-04 19:41 41.19656 -84.32765 27996 ft 406 kts 250°
2026-05-04 19:41 41.18594 -84.36300 28322 ft 409 kts 250°
2026-05-04 19:41 41.17549 -84.39773 28645 ft 411 kts 251°
2026-05-04 19:42 41.16484 -84.43301 28987 ft 413 kts 250°
2026-05-04 19:42 41.15415 -84.46852 29319 ft 415 kts 250°
2026-05-04 19:42 41.14337 -84.50429 29664 ft 417 kts 251°
2026-05-04 19:42 41.13255 -84.54014 29975 ft 419 kts 250°
2026-05-04 19:43 41.12170 -84.57594 30380 ft 418 kts 250°
2026-05-04 19:43 41.11087 -84.61162 30809 ft 416 kts 250°
2026-05-04 19:43 41.10121 -84.64767 31220 ft 413 kts 257°
2026-05-04 19:43 41.09482 -84.68462 31636 ft 411 kts 259°
2026-05-04 19:44 41.08867 -84.72147 32046 ft 410 kts 259°
2026-05-04 19:44 41.08247 -84.75835 32452 ft 409 kts 259°
2026-05-04 19:44 41.07624 -84.79510 32883 ft 407 kts 259°
2026-05-04 19:44 41.07003 -84.83166 33288 ft 406 kts 259°
2026-05-04 19:45 41.06384 -84.86810 33707 ft 405 kts 259°
2026-05-04 19:45 41.05763 -84.90454 34061 ft 404 kts 259°
2026-05-04 19:45 41.05147 -84.94078 34397 ft 403 kts 259°
2026-05-04 19:45 41.04532 -84.97696 34723 ft 402 kts 259°
2026-05-04 19:46 41.03918 -85.01304 35039 ft 401 kts 259°
2026-05-04 19:46 41.03304 -85.04899 35356 ft 400 kts 259°
2026-05-04 19:46 41.02696 -85.08441 35644 ft 399 kts 259°
2026-05-04 19:47 41.01452 -85.15664 35741 ft 405 kts 259°
2026-05-04 19:47 41.00190 -85.22961 35741 ft 407 kts 259°
2026-05-04 19:48 40.98916 -85.30265 35740 ft 407 kts 259°
2026-05-04 19:48 40.97647 -85.37560 35740 ft 407 kts 259°
2026-05-04 19:49 40.96373 -85.44862 35735 ft 407 kts 259°
2026-05-04 19:49 40.95086 -85.52167 35734 ft 408 kts 259°
2026-05-04 19:50 40.93798 -85.59482 35731 ft 408 kts 259°
2026-05-04 19:50 40.92508 -85.66793 35728 ft 409 kts 259°
2026-05-04 19:51 40.91210 -85.74120 35724 ft 409 kts 259°
2026-05-04 19:51 40.89900 -85.81444 35720 ft 409 kts 259°
2026-05-04 19:52 40.88599 -85.88730 35713 ft 409 kts 260°
2026-05-04 19:52 40.87760 -85.96157 35717 ft 408 kts 264°
2026-05-04 19:53 40.86966 -86.03589 35716 ft 409 kts 264°
2026-05-04 19:53 40.86165 -86.11015 35718 ft 408 kts 264°
2026-05-04 19:54 40.85364 -86.18442 35729 ft 408 kts 264°
2026-05-04 19:54 40.84556 -86.25871 35701 ft 409 kts 263°
2026-05-04 19:55 40.83744 -86.33304 35706 ft 409 kts 263°
2026-05-04 19:55 40.82923 -86.40743 35706 ft 409 kts 263°
2026-05-04 19:56 40.82101 -86.48179 35711 ft 409 kts 263°
2026-05-04 19:56 40.81268 -86.55621 35715 ft 410 kts 263°
2026-05-04 19:57 40.80436 -86.63008 35714 ft 409 kts 263°
2026-05-04 19:57 40.79594 -86.70435 35720 ft 409 kts 263°
2026-05-04 19:58 40.78750 -86.77875 35722 ft 409 kts 263°
2026-05-04 19:58 40.77907 -86.85289 35725 ft 409 kts 263°
2026-05-04 19:59 40.77055 -86.92724 35725 ft 409 kts 263°
2026-05-04 19:59 40.76191 -87.00152 35733 ft 409 kts 263°
2026-05-04 20:00 40.75326 -87.07573 35731 ft 409 kts 263°
2026-05-04 20:00 40.74475 -87.14941 35726 ft 409 kts 263°
2026-05-04 20:01 40.73607 -87.22345 35726 ft 409 kts 263°
2026-05-04 20:01 40.72726 -87.29743 35719 ft 409 kts 263°
2026-05-04 20:02 40.71841 -87.37150 35717 ft 408 kts 263°
2026-05-04 20:02 40.70960 -87.44538 35724 ft 408 kts 263°
2026-05-04 20:03 40.70078 -87.51920 35725 ft 407 kts 263°
2026-05-04 20:03 40.69184 -87.59286 35721 ft 407 kts 263°
2026-05-04 20:04 40.68290 -87.66610 35719 ft 407 kts 263°
2026-05-04 20:04 40.67393 -87.73956 35705 ft 402 kts 263°
2026-05-04 20:05 40.66498 -87.81208 35703 ft 402 kts 263°
2026-05-04 20:05 40.65596 -87.88427 35700 ft 399 kts 260°
2026-05-04 20:06 40.63487 -87.95243 35702 ft 408 kts 240°
2026-05-04 20:06 40.59857 -88.00956 35712 ft 413 kts 233°
2026-05-04 20:07 40.56025 -88.06610 35711 ft 413 kts 233°
2026-05-04 20:07 40.52207 -88.12266 35713 ft 414 kts 233°
2026-05-04 20:08 40.48378 -88.17917 35730 ft 414 kts 233°
2026-05-04 20:08 40.44546 -88.23560 35721 ft 414 kts 233°
2026-05-04 20:09 40.40700 -88.29219 35726 ft 415 kts 232°
2026-05-04 20:09 40.36882 -88.34825 35729 ft 415 kts 233°
2026-05-04 20:10 40.33030 -88.40465 35733 ft 415 kts 232°
2026-05-04 20:10 40.29174 -88.46098 35736 ft 415 kts 232°
2026-05-04 20:11 40.25317 -88.51729 35723 ft 415 kts 232°
2026-05-04 20:11 40.21449 -88.57356 35708 ft 415 kts 232°
2026-05-04 20:12 40.17586 -88.62971 35716 ft 415 kts 232°
2026-05-04 20:12 40.13715 -88.68585 35718 ft 415 kts 232°
2026-05-04 20:13 40.09872 -88.74155 35723 ft 415 kts 232°
2026-05-04 20:13 40.06631 -88.78847 35740 ft 415 kts 232°
2026-05-04 20:14 40.02757 -88.84439 35738 ft 415 kts 232°
2026-05-04 20:14 39.98875 -88.90025 35723 ft 416 kts 231°
2026-05-04 20:15 39.96836 -88.92963 35728 ft 416 kts 231°
2026-05-04 20:16 39.93466 -88.97809 35741 ft 417 kts 231°
2026-05-04 20:16 39.89562 -89.03403 35744 ft 417 kts 231°
2026-05-04 20:17 39.85652 -89.08985 35725 ft 417 kts 231°
2026-05-04 20:17 39.81745 -89.14569 35736 ft 417 kts 231°
2026-05-04 20:18 39.77833 -89.20154 35725 ft 417 kts 231°
2026-05-04 20:18 39.73912 -89.25747 35733 ft 418 kts 232°
2026-05-04 20:19 39.70022 -89.31281 35743 ft 418 kts 231°
2026-05-04 20:19 39.66095 -89.36855 35752 ft 418 kts 231°
2026-05-04 20:20 39.62161 -89.42416 35755 ft 418 kts 231°
2026-05-04 20:20 39.58229 -89.47965 35756 ft 418 kts 231°
2026-05-04 20:21 39.54295 -89.53509 35742 ft 418 kts 231°
2026-05-04 20:21 39.48387 -89.61839 35744 ft 419 kts 231°
2026-05-04 20:22 39.44440 -89.67387 35744 ft 419 kts 231°
2026-05-04 20:22 39.40484 -89.72930 35731 ft 419 kts 231°
2026-05-04 20:23 39.36532 -89.78465 35739 ft 419 kts 231°
2026-05-04 20:23 39.32570 -89.83998 35722 ft 419 kts 232°
2026-05-04 20:24 39.28628 -89.89498 35732 ft 420 kts 232°
2026-05-04 20:24 39.24655 -89.95032 35737 ft 420 kts 232°
2026-05-04 20:25 39.20678 -90.00553 35737 ft 420 kts 232°
2026-05-04 20:25 39.16705 -90.06070 35750 ft 420 kts 232°
2026-05-04 20:26 39.12726 -90.11579 35758 ft 419 kts 232°
2026-05-04 20:26 39.08753 -90.17077 35742 ft 419 kts 232°
2026-05-04 20:27 39.04774 -90.22566 35730 ft 419 kts 232°
2026-05-04 20:27 39.00795 -90.28036 35756 ft 419 kts 232°
2026-05-04 20:28 38.96807 -90.33511 35756 ft 419 kts 232°
2026-05-04 20:28 38.92826 -90.38981 35753 ft 419 kts 232°
2026-05-04 20:29 38.88847 -90.44443 35738 ft 419 kts 232°
2026-05-04 20:29 38.84876 -90.49898 35747 ft 417 kts 233°
2026-05-04 20:30 38.81073 -90.55431 35751 ft 415 kts 234°
2026-05-04 20:30 38.77319 -90.61057 35759 ft 415 kts 235°
2026-05-04 20:31 38.73540 -90.66676 35747 ft 415 kts 234°
2026-05-04 20:31 38.69748 -90.72231 35742 ft 415 kts 234°
2026-05-04 20:32 38.65932 -90.77788 35754 ft 415 kts 234°
2026-05-04 20:32 38.62133 -90.83325 35736 ft 414 kts 235°
2026-05-04 20:33 38.58348 -90.88846 35747 ft 413 kts 235°
2026-05-04 20:33 38.54560 -90.94356 35747 ft 412 kts 235°
2026-05-04 20:34 38.50802 -90.99813 35747 ft 412 kts 235°
2026-05-04 20:34 38.47012 -91.05297 35744 ft 411 kts 235°
2026-05-04 20:35 38.43229 -91.10768 35742 ft 411 kts 235°
2026-05-04 20:35 38.39446 -91.16237 35769 ft 411 kts 236°
2026-05-04 20:36 38.35662 -91.21696 35783 ft 411 kts 235°
2026-05-04 20:36 38.31875 -91.27141 35786 ft 410 kts 235°
2026-05-04 20:37 38.28084 -91.32577 35782 ft 410 kts 235°
2026-05-04 20:37 38.24293 -91.38008 35781 ft 410 kts 235°
2026-05-04 20:38 38.20513 -91.43431 35775 ft 410 kts 235°
2026-05-04 20:38 38.16731 -91.48848 35757 ft 409 kts 236°
2026-05-04 20:39 38.12951 -91.54250 35728 ft 409 kts 235°
2026-05-04 20:39 38.09157 -91.59652 35744 ft 410 kts 235°
2026-05-04 20:40 38.05356 -91.65054 35758 ft 410 kts 235°
2026-05-04 20:40 38.01549 -91.70453 35767 ft 411 kts 235°
2026-05-04 20:41 37.97735 -91.75850 35777 ft 411 kts 235°
2026-05-04 20:41 37.93929 -91.81245 35758 ft 411 kts 235°
2026-05-04 20:42 37.90141 -91.86590 35775 ft 410 kts 235°
2026-05-04 20:42 37.86333 -91.91953 35767 ft 409 kts 236°
2026-05-04 20:43 37.82532 -91.97309 35769 ft 409 kts 236°
2026-05-04 20:43 37.78724 -92.02662 35770 ft 409 kts 236°
2026-05-04 20:44 37.74916 -92.08007 35773 ft 409 kts 236°
2026-05-04 20:44 37.71105 -92.13342 35775 ft 409 kts 236°
2026-05-04 20:45 37.67301 -92.18673 35755 ft 409 kts 236°
2026-05-04 20:45 37.63493 -92.23997 35766 ft 409 kts 236°
2026-05-04 20:46 37.59676 -92.29318 35767 ft 409 kts 237°
2026-05-04 20:46 37.55855 -92.34632 35773 ft 408 kts 237°
2026-05-04 20:47 37.52068 -92.39890 35802 ft 407 kts 237°
2026-05-04 20:47 37.48230 -92.45207 35804 ft 407 kts 237°
2026-05-04 20:48 37.44449 -92.50442 35785 ft 406 kts 238°
2026-05-04 20:48 37.40637 -92.55714 35785 ft 407 kts 238°
2026-05-04 20:49 37.36819 -92.60996 35789 ft 407 kts 238°
2026-05-04 20:49 37.33021 -92.66241 35791 ft 407 kts 238°
2026-05-04 20:50 37.29195 -92.71506 35798 ft 407 kts 238°
2026-05-04 20:50 37.25381 -92.76743 35803 ft 406 kts 238°
2026-05-04 20:51 37.21563 -92.81960 35806 ft 405 kts 238°
2026-05-04 20:51 37.17756 -92.87162 35792 ft 404 kts 239°
2026-05-04 20:52 37.13987 -92.92329 35797 ft 404 kts 239°
2026-05-04 20:52 37.10186 -92.97524 35802 ft 404 kts 239°
2026-05-04 20:53 37.06370 -93.02714 35807 ft 404 kts 239°
2026-05-04 20:53 37.02581 -93.07869 35789 ft 403 kts 239°
2026-05-04 20:54 36.98802 -93.13003 35802 ft 402 kts 239°
2026-05-04 20:54 36.95000 -93.18157 35811 ft 402 kts 239°
2026-05-04 20:55 36.91209 -93.23292 35803 ft 401 kts 240°
2026-05-04 20:55 36.87425 -93.28407 35823 ft 401 kts 240°
2026-05-04 20:56 36.83662 -93.33482 35832 ft 400 kts 240°
2026-05-04 20:56 36.79867 -93.38597 35841 ft 400 kts 240°
2026-05-04 20:57 36.76082 -93.43697 35843 ft 400 kts 240°
2026-05-04 20:57 36.72314 -93.48759 35843 ft 400 kts 240°
2026-05-04 20:58 36.69153 -93.52996 35803 ft 400 kts 240°
2026-05-04 20:58 36.65371 -93.58068 35824 ft 398 kts 240°
2026-05-04 20:59 36.61614 -93.63096 35827 ft 398 kts 240°
2026-05-04 20:59 36.57842 -93.68126 35826 ft 397 kts 240°
2026-05-04 21:00 36.54082 -93.73134 35817 ft 396 kts 240°
2026-05-04 21:00 36.50312 -93.78152 35832 ft 396 kts 240°
2026-05-04 21:01 36.46556 -93.83153 35849 ft 395 kts 241°
2026-05-04 21:01 36.42827 -93.88102 35826 ft 392 kts 242°
2026-05-04 21:02 36.39095 -93.93046 35862 ft 390 kts 242°
2026-05-04 21:02 36.35411 -93.97929 35863 ft 389 kts 242°
2026-05-04 21:03 36.31706 -94.02824 35861 ft 388 kts 242°
2026-05-04 21:03 36.28005 -94.07716 35861 ft 388 kts 242°
2026-05-04 21:04 36.26002 -94.09985 35853 ft 406 kts 232°
2026-05-04 21:04 36.23488 -94.11809 35852 ft 433 kts 219°
2026-05-04 21:04 36.20503 -94.12928 35848 ft 462 kts 205°
2026-05-04 21:04 36.17283 -94.13502 35812 ft 467 kts 203°
2026-05-04 21:05 36.10851 -94.14593 35824 ft 468 kts 203°
2026-05-04 21:05 36.04421 -94.15698 35824 ft 468 kts 204°
2026-05-04 21:06 35.97960 -94.16831 35826 ft 468 kts 204°
2026-05-04 21:06 35.91487 -94.17975 35834 ft 469 kts 204°
2026-05-04 21:07 35.85068 -94.19103 35815 ft 468 kts 204°
2026-05-04 21:07 35.78591 -94.20238 35814 ft 468 kts 204°
2026-05-04 21:08 35.72169 -94.21350 35837 ft 468 kts 203°
2026-05-04 21:08 35.65702 -94.22469 35823 ft 467 kts 203°
2026-05-04 21:09 35.59297 -94.23600 35850 ft 467 kts 203°
2026-05-04 21:09 35.52865 -94.24724 35857 ft 467 kts 203°
2026-05-04 21:10 35.46423 -94.25835 35857 ft 466 kts 203°
2026-05-04 21:10 35.40298 -94.27559 35813 ft 436 kts 218°
2026-05-04 21:11 35.37616 -94.29147 35820 ft 418 kts 226°
2026-05-04 21:11 35.35248 -94.31108 35823 ft 403 kts 234°
2026-05-04 21:11 35.31113 -94.35565 35827 ft 396 kts 237°
2026-05-04 21:12 35.26981 -94.40054 35830 ft 397 kts 237°
2026-05-04 21:12 35.22837 -94.44534 35838 ft 397 kts 236°
2026-05-04 21:13 35.18717 -94.48982 35840 ft 397 kts 237°
2026-05-04 21:13 35.14567 -94.53466 35817 ft 397 kts 237°
2026-05-04 21:14 35.10417 -94.57949 35795 ft 398 kts 237°
2026-05-04 21:14 35.06285 -94.62403 35834 ft 398 kts 237°
2026-05-04 21:15 35.02120 -94.66879 35838 ft 398 kts 237°
2026-05-04 21:15 34.97951 -94.71354 35840 ft 398 kts 237°
2026-05-04 21:16 34.93786 -94.75829 35842 ft 398 kts 237°
2026-05-04 21:16 34.89644 -94.80273 35803 ft 399 kts 237°
2026-05-04 21:17 34.85461 -94.84737 35814 ft 399 kts 237°
2026-05-04 21:17 34.81273 -94.89203 35825 ft 401 kts 237°
2026-05-04 21:18 34.77007 -94.93609 35839 ft 403 kts 236°
2026-05-04 21:18 34.72723 -94.97946 35844 ft 403 kts 236°
2026-05-04 21:19 34.68402 -95.02310 35850 ft 402 kts 236°
2026-05-04 21:19 34.64108 -95.06683 35859 ft 402 kts 236°
2026-05-04 21:20 34.59836 -95.11030 35821 ft 402 kts 236°
2026-05-04 21:20 34.55545 -95.15401 35836 ft 402 kts 236°
2026-05-04 21:21 34.51275 -95.19734 35852 ft 402 kts 236°
2026-05-04 21:21 34.46972 -95.24094 35857 ft 402 kts 236°
2026-05-04 21:22 34.42699 -95.28411 35858 ft 402 kts 236°
2026-05-04 21:22 34.38390 -95.32756 35863 ft 402 kts 235°
2026-05-04 21:23 34.34079 -95.37086 35830 ft 402 kts 235°
2026-05-04 21:23 34.29778 -95.41397 35387 ft 405 kts 234°
2026-05-04 21:24 34.27594 -95.43603 34473 ft 412 kts 234°
2026-05-04 21:24 34.25368 -95.45856 33602 ft 418 kts 234°
2026-05-04 21:24 34.23139 -95.48094 33091 ft 414 kts 234°
2026-05-04 21:24 34.20953 -95.50268 32567 ft 410 kts 233°
2026-05-04 21:25 34.18759 -95.52443 32056 ft 406 kts 233°
2026-05-04 21:25 34.16583 -95.54602 31542 ft 403 kts 233°
2026-05-04 21:25 34.14429 -95.56752 31033 ft 399 kts 233°
2026-05-04 21:25 34.12302 -95.58887 30532 ft 396 kts 233°
2026-05-04 21:26 34.10218 -95.60991 30041 ft 392 kts 233°
2026-05-04 21:26 34.08119 -95.63109 29390 ft 391 kts 233°
2026-05-04 21:26 34.06027 -95.65189 28942 ft 387 kts 232°
2026-05-04 21:26 34.03954 -95.67229 28524 ft 382 kts 232°
2026-05-04 21:27 34.01905 -95.69233 28110 ft 377 kts 232°
2026-05-04 21:27 33.99879 -95.71216 27697 ft 373 kts 231°
2026-05-04 21:27 33.97883 -95.73184 27330 ft 369 kts 231°
2026-05-04 21:27 33.95903 -95.75144 26930 ft 366 kts 231°
2026-05-04 21:28 33.93944 -95.77096 26512 ft 365 kts 231°
2026-05-04 21:28 33.92000 -95.79047 26095 ft 363 kts 231°
2026-05-04 21:28 33.90064 -95.80998 25679 ft 363 kts 230°
2026-05-04 21:28 33.88130 -95.82945 25261 ft 362 kts 230°
2026-05-04 21:29 33.86223 -95.84860 24832 ft 362 kts 229°
2026-05-04 21:29 33.84288 -95.86804 24400 ft 361 kts 229°
2026-05-04 21:29 33.82352 -95.88742 23959 ft 361 kts 228°
2026-05-04 21:29 33.80413 -95.90669 23486 ft 362 kts 227°
2026-05-04 21:30 33.78470 -95.92588 22984 ft 361 kts 227°
2026-05-04 21:30 33.76532 -95.94491 22508 ft 359 kts 227°
2026-05-04 21:30 33.74601 -95.96387 22045 ft 357 kts 226°
2026-05-04 21:30 33.72682 -95.98269 21582 ft 355 kts 226°
2026-05-04 21:31 33.68879 -96.02008 20649 ft 351 kts 226°
2026-05-04 21:31 33.66997 -96.03862 20193 ft 349 kts 226°
2026-05-04 21:31 33.65125 -96.05701 19712 ft 348 kts 226°
2026-05-04 21:32 33.63232 -96.07563 19016 ft 353 kts 226°
2026-05-04 21:32 33.61335 -96.09427 18551 ft 351 kts 226°
2026-05-04 21:32 33.59451 -96.11270 18128 ft 348 kts 225°
2026-05-04 21:32 33.57581 -96.13099 17657 ft 345 kts 225°
2026-05-04 21:33 33.55735 -96.14908 17234 ft 341 kts 225°
2026-05-04 21:33 33.53910 -96.16696 16814 ft 337 kts 225°
2026-05-04 21:33 33.52109 -96.18461 16398 ft 333 kts 225°
2026-05-04 21:33 33.50333 -96.20201 16116 ft 326 kts 225°
2026-05-04 21:34 33.48588 -96.21909 15731 ft 323 kts 225°
2026-05-04 21:34 33.46856 -96.23604 15328 ft 321 kts 225°
2026-05-04 21:34 33.45135 -96.25294 14899 ft 319 kts 226°
2026-05-04 21:34 33.43613 -96.27172 14483 ft 313 kts 234°
2026-05-04 21:35 33.42195 -96.29139 14074 ft 311 kts 234°
2026-05-04 21:35 33.40796 -96.31074 13676 ft 311 kts 234°
2026-05-04 21:35 33.39366 -96.33049 13231 ft 309 kts 233°
2026-05-04 21:35 33.37961 -96.34983 12823 ft 307 kts 233°
2026-05-04 21:36 33.36569 -96.36899 12423 ft 304 kts 233°
2026-05-04 21:36 33.35194 -96.38792 12182 ft 297 kts 233°
2026-05-04 21:36 33.33858 -96.40625 12014 ft 288 kts 233°
2026-05-04 21:36 33.32718 -96.42501 11752 ft 278 kts 245°
2026-05-04 21:37 33.32001 -96.44615 11508 ft 272 kts 254°
2026-05-04 21:37 33.31409 -96.46775 11313 ft 270 kts 254°
2026-05-04 21:37 33.30812 -96.48910 11053 ft 270 kts 253°
2026-05-04 21:37 33.30229 -96.50979 10888 ft 262 kts 253°
2026-05-04 21:38 33.29646 -96.53040 10549 ft 262 kts 253°
2026-05-04 21:38 33.29066 -96.55097 10210 ft 261 kts 253°
2026-05-04 21:38 33.28672 -96.57224 9925 ft 258 kts 266°
2026-05-04 21:38 33.28576 -96.59363 9592 ft 257 kts 266°
2026-05-04 21:39 33.28486 -96.61458 9293 ft 255 kts 266°
2026-05-04 21:39 33.28392 -96.63579 8964 ft 254 kts 266°
2026-05-04 21:39 33.28297 -96.65675 8668 ft 252 kts 266°
2026-05-04 21:39 33.28201 -96.67765 8353 ft 251 kts 265°
2026-05-04 21:40 33.28106 -96.69836 8049 ft 249 kts 265°
2026-05-04 21:40 33.28013 -96.71896 7752 ft 248 kts 265°
2026-05-04 21:40 33.27918 -96.73947 7462 ft 246 kts 265°
2026-05-04 21:40 33.27823 -96.75959 7324 ft 238 kts 265°
2026-05-04 21:41 33.27728 -96.77927 7049 ft 237 kts 265°
2026-05-04 21:41 33.27633 -96.79894 6768 ft 236 kts 265°
2026-05-04 21:41 33.27542 -96.81844 6516 ft 234 kts 264°
2026-05-04 21:41 33.27452 -96.83785 6234 ft 234 kts 264°
2026-05-04 21:42 33.27357 -96.85746 5684 ft 243 kts 264°
2026-05-04 21:42 33.27264 -96.87788 5234 ft 248 kts 264°
2026-05-04 21:42 33.27184 -96.89851 4889 ft 248 kts 264°
2026-05-04 21:42 33.26988 -96.91866 4708 ft 239 kts 251°
2026-05-04 21:43 33.26231 -96.93576 4523 ft 231 kts 233°
2026-05-04 21:43 33.25265 -96.95098 4350 ft 230 kts 232°
2026-05-04 21:43 33.24287 -96.96620 4221 ft 232 kts 232°
2026-05-04 21:43 33.23306 -96.98144 4108 ft 232 kts 231°
2026-05-04 21:44 33.22656 -96.99157 4018 ft 231 kts 231°
2026-05-04 21:44 33.21673 -97.00687 3895 ft 234 kts 230°
2026-05-04 21:44 33.20684 -97.02222 3775 ft 231 kts 230°
2026-05-04 21:44 33.19705 -97.03745 3648 ft 230 kts 229°
2026-05-04 21:45 33.18722 -97.05274 3525 ft 234 kts 230°
2026-05-04 21:45 33.17735 -97.06807 3405 ft 234 kts 230°
2026-05-04 21:45 33.16752 -97.08337 3283 ft 230 kts 229°
2026-05-04 21:45 33.15781 -97.09854 3163 ft 231 kts 228°
2026-05-04 21:46 33.14792 -97.11393 3045 ft 235 kts 229°
2026-05-04 21:46 33.13797 -97.12941 2936 ft 233 kts 228°
2026-05-04 21:46 33.12819 -97.14467 2988 ft 229 kts 227°
2026-05-04 21:46 33.11884 -97.15927 2986 ft 213 kts 228°
2026-05-04 21:47 33.11018 -97.17284 2984 ft 199 kts 227°
2026-05-04 21:47 33.10169 -97.18602 2988 ft 203 kts 228°
2026-05-04 21:47 33.09304 -97.19938 2988 ft 204 kts 227°
2026-05-04 21:47 33.08445 -97.21267 2989 ft 200 kts 227°
2026-05-04 21:48 33.07498 -97.22446 2989 ft 195 kts 209°
2026-05-04 21:48 33.06248 -97.22939 2988 ft 195 kts 182°
2026-05-04 21:48 33.04909 -97.22606 2986 ft 199 kts 156°
2026-05-04 21:48 33.03809 -97.21595 2981 ft 204 kts 144°
2026-05-04 21:49 33.02742 -97.20482 2985 ft 203 kts 144°
2026-05-04 21:49 33.01683 -97.19377 2983 ft 202 kts 144°
2026-05-04 21:49 33.00622 -97.18277 2957 ft 203 kts 144°
2026-05-04 21:49 32.99560 -97.17181 2783 ft 202 kts 144°
2026-05-04 21:50 32.98508 -97.16095 2550 ft 201 kts 145°
2026-05-04 21:50 32.97458 -97.15012 2311 ft 196 kts 145°
2026-05-04 21:50 32.96455 -97.13974 2057 ft 184 kts 145°
2026-05-04 21:50 32.95528 -97.13017 1851 ft 169 kts 146°
2026-05-04 21:51 32.94675 -97.12136 1618 ft 153 kts 146°
2026-05-04 21:51 32.93936 -97.11372 1431 ft 131 kts 143°
2026-05-04 21:51 32.93270 -97.10691 1235 ft 126 kts 143°
2026-05-04 21:51 32.92587 -97.09992 1070 ft 131 kts 142°
2026-05-04 21:52 32.91906 -97.09292 908 ft 127 kts 147°
2026-05-04 21:52 32.91248 -97.08602 725 ft 125 kts 143°
2026-05-04 21:52 32.90597 -97.07933 612 ft 117 kts 143°
2026-05-04 21:52 32.90102 -97.07437 593 ft 56 kts 139°
2026-05-04 21:53 32.89949 -97.07279 594 ft 22 kts 139°
2026-05-04 21:53 32.89835 -97.07159 594 ft 21 kts 138°
2026-05-04 21:53 32.89729 -97.07049 596 ft 19 kts 138°
2026-05-04 21:53 32.89621 -97.06905 594 ft 27 kts 118°
2026-05-04 21:54 32.89553 -97.06694 593 ft 28 kts 109°
2026-05-04 21:54 32.89514 -97.06560 590 ft 16 kts 109°
2026-05-04 21:54 32.89493 -97.06487 589 ft 12 kts 109°
2026-05-04 21:54 32.89459 -97.06373 591 ft 16 kts 109°
2026-05-04 21:55 32.89384 -97.06274 591 ft 17 kts 139°
2026-05-04 21:55 32.89288 -97.06176 591 ft 19 kts 139°
2026-05-04 21:55 32.89188 -97.06072 594 ft 19 kts 139°
2026-05-04 21:55 32.89089 -97.05970 596 ft 19 kts 139°
2026-05-04 21:56 32.89045 -97.05838 598 ft 18 kts 89°
2026-05-04 21:56 32.89046 -97.05678 598 ft 21 kts 90°
2026-05-04 21:56 32.89046 -97.05562 598 ft 4 kts 90°
2026-05-04 21:56 32.89046 -97.05467 597 ft 24 kts 90°
2026-05-04 21:57 32.89045 -97.05266 590 ft 27 kts 91°
2026-05-04 21:57 32.89044 -97.05091 589 ft 21 kts 90°
2026-05-04 21:57 32.89044 -97.04959 591 ft 14 kts 90°
2026-05-04 21:57 32.89074 -97.04888 591 ft 8 kts 12°
2026-05-04 21:58 32.89139 -97.04888 591 ft 11 kts 359°
2026-05-04 21:58 32.89222 -97.04889 592 ft 13 kts 359°
2026-05-04 21:58 32.89289 -97.04889 594 ft 7 kts
2026-05-04 21:58 32.89343 -97.04889 596 ft 8 kts
2026-05-04 21:59 32.89392 -97.04885 597 ft 5 kts 21°
2026-05-04 21:59 32.89401 -97.04838 596 ft 9 kts 91°
2026-05-04 21:59 32.89423 -97.04766 595 ft 7 kts 26°
2026-05-04 21:59 32.89429 -97.04735 595 ft 5 kts 90°
2026-05-04 22:00 32.89429 -97.04675 597 ft 9 kts 90°
2026-05-04 22:00 32.89435 -97.04598 598 ft 10 kts 61°
2026-05-04 22:00 32.89455 -97.04574 598 ft 1 kts 37°
2026-05-04 22:00 32.89457 -97.04573 598 ft 1 kts 37°
2026-05-04 22:01 32.89458 -97.04571 598 ft 0 kts 37°
2026-05-04 22:01 32.89462 -97.04567 598 ft 0 kts 37°
2026-05-04 22:01 32.89479 -97.04553 593 ft 8 kts 37°
2026-05-04 22:01 32.89504 -97.04530 598 ft 5 kts 38°
2026-05-04 22:02 32.89514 -97.04520 598 ft 0 kts 38°
2026-05-04 22:02 32.89515 -97.04520 598 ft 0 kts 38°
2026-05-04 22:05 32.89519 -97.04515 598 ft 0 kts 38°